Location: ????????
(55.0559°N, 39.1270°E)
Time: 01:11:43
(UTC+00:00)

SJ 16-02 - Pass Details

Date: 15 November 2025
Orbit: 585 x 594 km, 75.0° (Epoch: 12 December)

Event Time Altitude Azimuth Distance (km) Brightness Sun altitude
Exits shadow 00:37:50 12° 100° (E) 1,784 4.3 -36.2°
Drops below altitude 10° 00:38:17 10° 104° (ESE) 1,922 4.4 -36.2°
Sets 00:40:49 0° 118° (ESE) 2,817 5.2 -35.8°
